Location: Franzen
(48.6167°N, 15.3833°E)
Time: 23:15:05
(UTC+00:00)

ARIANE 5 R/B - Pass Details

Date: 05 August 2021
Orbit: 622 x 654 km, 98.1° (Epoch: 23 September)

Event Time Altitude Azimuth Distance (km) Brightness Sun altitude
Exits shadow 19:54:19 18° 139° (SE) 1,577 4.0 -12.2°
Maximum altitude 19:57:24 50° 70° (ENE) 819 3.0 -12.6°
Drops below altitude 10° 20:01:40 10° 356° (N) 2,028 6.0 -13.1°
Sets 20:03:54 0° 351° (N) 2,936 7.0 -13.3°
